MIRATA (43015 NORAD) Tracking and Keplerian Element Data

This shows tracking and keplerian element data for the satellite.

Feedback or suggestion? Click here.




ElementValue
Catalog43015
NameMIRATA
Epoch Orbit3565
Epoch Day198.75398068
Epoch Year2018
RAAN128.4918
Inclination97.7041
Eccentricity0.025804
Argument of Perigee171.6885
Mean Anonmoly188.8729
Mean Motion14.78183688
Decay Rate5.92E-06
L11 43015U 17073C 18198.75398068 .00000592 00000-0 52069-4 0 9996
L22 43015 97.7041 128.4918 0258040 171.6885 188.8729 14.78183688 35657

Live tracking and technical data element details for MIRATA (NORAD 43015). MIRATA can be tracked NOW for your location showing map with azimuth and elevation plus other details from your city location.

Track the satellite on the map from your city or location and see movement details for azimuth, elevation, latitude, longitude, range, height, and movement on the map or in text.







IsCatalogInMostPopularTable: catalog: 43015, numindb: 54
Update: records affected: 1



GetName: 43015 MIRATA

Hit Count: updated at: Fri, 20 Jul 2018 20:28:34 GMT